User: anonymous   Login
Location: Unspecified
(0.0000°N, 0.0000°E)
Time: 09:27:59
(UTC+00:00)
Language:

RADARSAT 2 - Orbit

View from above orbital plane
View from above orbital plane
View from above satellite
View from above satellite

Ground track
Ground track

The orbit data is extracted from the following two-line orbital elements,

1 32382U 07061A   18018.75956632  .00000059  00000-0  39932-4 0  9997
2 32382  98.5756  28.2100 0001408  93.7196  13.6189 14.29984028527101
Epoch (UTC): 18 January 2018 18:13:46
Eccentricity: 0.0001408
inclination: 98.5756°
perigee height: 791 km
apogee height: 793 km
right ascension of ascending node: 28.2100°
argument of perigee: 93.7196°
revolutions per day: 14.29984028
mean anomaly at epoch: 13.6189°
orbit number at epoch: 52710

The dashed part of the orbit path shows where the satellite is in the earth's shadow,  

DLR